Preview of NWS' New Version of Forecast
This preview is not operational and should not be used for support decisions.

Regional Weather Roundup (RWR)

Issued by National Weather Service (NWS)

                            
000
ASUS45 KBOI 190510
RWRID 

IDAHO REGIONAL WEATHER ROUNDUP
NATIONAL WEATHER SERVICE BOISE ID
1000 PM MST MON FEB 18 2019

NOTE: "FAIR" INDICATES FEW OR NO CLOUDS BELOW 12000 FEET
WITH NO SIGNIFICANT WEATHER AND/OR OBSTRUCTIONS TO VISIBILITY

IDZ012-014-190600-
SOUTHWEST IDAHO

  
CITY           SKY/WX    TMP DP  RH WIND       PRES   REMARKS
BOISE          MOCLDY    27  12  53 NW8       30.16S WCI  19          
CALDWELL       PTCLDY    28  19  69 W10       30.20S WCI  19          
MOUNTAIN HOME  CLEAR     25  23  94 NW17        N/A  WCI  11          
$$

IDZ016-017-190600-
SOUTHCENTRAL IDAHO

  
CITY           SKY/WX    TMP DP  RH WIND       PRES   REMARKS
BURLEY         CLOUDY    22  14  71 SW14      30.04R WCI   9          
JEROME         CLEAR     20  12  71 SW12      30.04S WCI   8          
TWIN FALLS     MOCLDY    17  11  77 SW15      30.05S WCI   2          
$$

IDZ019>023-190600-
SOUTHEAST IDAHO

  
CITY           SKY/WX    TMP DP  RH WIND       PRES   REMARKS
IDAHO FALLS    FLURRIES  20  16  84 CALM      30.00S                  
POCATELLO      CLOUDY    22  15  75 W20       30.03R WCI   7          
REXBURG        LGT SNOW  16  12  84 NE6       30.00R FOG     WCI   7  
$$

IDZ006-010-011-018-031-032-190600-
CENTRAL IDAHO MOUNTAINS

  
CITY           SKY/WX    TMP DP  RH WIND       PRES   REMARKS
MCCALL         CLOUDY    14   8  77 N5        30.03S WCI   6          
HAILEY         CLOUDY    10   7  85 NW9       29.97S WCI  -2          
STANLEY          N/A     -1  -8  72 CALM      29.97R                  
SALMON         MOCLDY    16   6  65 E6        30.09S WCI   7          
CHALLIS        PTCLDY    12  -2  53 S3        30.02R                  
$$

IDZ002-004-006-007-026-190600-
NORTHERN IDAHO

  
CITY           SKY/WX    TMP DP  RH WIND       PRES   REMARKS
LEWISTON       CLOUDY    26  19  74 CALM      30.29S                  
LOWELL           N/A     25  20  81 CALM      30.31S                  
COEUR D'ALENE  PTCLDY     2  -1  88 CALM      30.23S                  
MULLAN PASS    CLOUDY     4   0  83 CALM      29.93S                  
$$